Location: Minneapolis
(45.0000°N, 93.0000°W)
Time: 14:26:55
(UTC-05:00)

Envisat - Pass Details

Date: 16 March 2018
Orbit: 764 x 766 km, 98.2° (Epoch: 20 June)

Event Time Altitude Azimuth Distance (km) Brightness Sun altitude
Rises 19:41:08 0° 138° (SE) 3,217 5.8 -4.7°
Reaches altitude 10° 19:43:37 10° 129° (SE) 2,296 5.0 -5.1°
Maximum altitude 19:48:05 33° 67° (ENE) 1,275 3.7 -5.9°
Drops below altitude 10° 19:52:36 10° 4° (N) 2,310 5.5 -6.7°
Sets 19:55:05 0° 355° (N) 3,241 6.4 -7.1°
